Wind_Speed
9 9 9 8 8 8 8 8 9 8 8 8 9 9 9 9 9 10 8 7 7 7 7 7 8 9 10 10 10 10 11 11 11 11 11 12 12 12 12 13 12 13 13
9 9 9 9 9 8 8 9 8 8 8 9 9 10 10 9 10 11 10 9 9 8 7 7 7 8 9 10 10 10 11 11 12 12 12 11 12 11 11 12 12 12 13
9 9 9 9 9 9 9 10 9 9 9 9 9 10 10 10 10 10 10 9 9 9 9 8 8 9 9 10 11 11 11 11 12 12 12 12 12 12 11 12 12 12 12
10 10 10 9 9 9 10 10 10 10 10 10 10 10 10 10 10 10 10 10 10 9 9 9 9 10 11 11 12 12 12 12 12 12 12 12 12 12 12 12 12 12 13
10 10 10 11 10 10 10 11 11 11 10 10 11 11 11 11 12 12 12 11 11 11 11 10 11 11 12 12 12 12 12 12 12 12 11 11 12 12 11 11 12 12 12
11 11 11 11 11 11 11 12 12 11 11 11 11 11 12 12 12 13 13 13 12 12 12 12 12 13 12 12 12 13 13 13 12 12 12 12 12 12 12 12 12 12 13
13 12 12 12 12 12 12 12 13 13 12 12 12 12 12 12 13 13 13 13 14 13 13 13 13 13 13 13 13 13 13 14 14 14 13 13 13 13 13 13 13 13 13
13 13 13 13 13 13 13 13 13 14 14 14 14 13 13 13 14 14 14 14 14 14 13 13 14 13 13 14 13 14 14 14 14 15 15 14 14 14 14 14 14 14 14
14 14 13 13 13 13 14 14 14 14 14 14 15 15 14 14 15 15 16 15 14 15 14 14 13 13 14 14 14 15 15 15 15 15 16 16 15 15 15 15 15 15 15
15 15 15 14 14 14 14 15 15 15 15 15 15 15 16 16 16 16 16 16 16 15 15 15 14 14 14 15 15 16 16 16 16 16 17 17 16 16 16 16 16 16 16
16 16 16 16 16 16 16 16 17 17 17 17 17 17 17 17 17 17 17 17 17 17 16 16 17 16 16 17 17 17 17 17 18 17 17 17 17 17 17 17 16 16 16
18 18 17 18 18 18 18 19 19 19 19 19 19 19 19 19 19 19 19 18 18 18 18 18 18 18 18 19 19 19 19 19 19 19 18 18 18 18 18 18 17 17 17
20 19 19 19 19 20 20 20 20 21 20 20 20 20 21 21 21 21 21 20 20 19 19 19 20 20 20 20 20 21 21 20 20 20 20 20 20 20 19 19 18 17 17
21 21 21 21 21 21 21 22 22 22 23 23 22 22 22 23 23 23 22 22 21 21 21 21 21 21 21 22 22 22 22 22 21 21 21 21 21 21 20 20 20 18 18
22 23 23 23 23 23 23 23 23 24 24 24 24 24 24 24 24 24 24 23 23 23 23 23 23 23 23 23 23 23 23 22 22 22 22 22 22 21 21 21 21 20 20
24 25 25 25 24 25 25 25 25 26 26 26 26 27 27 27 26 25 25 25 25 24 24 24 24 25 25 24 24 24 24 23 23 23 23 24 24 24 23 23 23 22 21
26 26 26 26 26 26 26 27 27 28 28 28 28 28 29 29 28 27 27 27 27 26 26 26 26 26 26 26 26 26 26 25 25 25 24 24 25 25 25 24 24 23 23
27 27 27 28 28 28 28 28 28 29 29 29 29 29 29 30 29 29 29 29 29 29 28 28 27 27 27 27 27 26 26 26 26 26 27 26 26 26 26 25 25 25 24
29 29 29 29 29 29 30 30 30 30 30 30 31 31 31 31 31 31 31 30 30 30 29 29 28 28 28 28 27 27 27 27 27 27 27 27 27 28 28 26 26 27 26
30 30 30 30 30 30 30 30 30 31 31 31 31 32 32 32 32 31 31 31 31 31 30 29 29 28 28 28 28 28 28 28 27 27 28 28 28 28 28 27 27 28 28
32 32 31 31 31 31 31 31 31 32 32 32 32 32 32 32 33 32 32 32 32 32 31 31 30 29 28 28 28 28 28 28 28 28 28 29 29 28 29 29 29 29 29
32 33 33 33 33 33 33 33 34 33 33 32 33 33 33 33 34 34 34 33 33 32 32 32 31 30 29 29 29 29 30 30 30 30 30 30 30 30 30 29 29 29 30
33 34 34 34 34 34 34 34 34 34 34 33 33 33 33 34 34 34 34 33 33 32 32 32 31 31 30 30 30 30 31 31 31 31 31 31 31 31 31 31 30 30 30
34 34 35 35 36 36 35 35 35 34 34 34 33 33 33 33 33 33 33 33 33 33 32 32 32 32 33 32 32 33 33 32 32 32 32 32 32 32 33 33 32 32 32
35 35 35 35 35 36 36 36 36 35 35 34 34 33 33 33 34 34 34 34 33 34 33 33 33 33 34 34 35 35 34 34 33 34 34 33 33 33 34 33 33 33 33
36 36 35 34 35 36 36 36 36 36 35 35 35 34 34 34 35 35 35 35 34 34 35 35 35 35 35 36 35 36 35 35 35 34 34 34 34 34 34 34 33 33 33
Wind_Direction
306 304 304 301 297 296 295 294 291 286 284 288 290 294 292 291 293 292 284 284 287 284 274 266 262 255 256 258 256 256 259 262 264 264 263 262 260 260 260 262 259 258 254
305 303 303 303 299 295 292 291 290 289 287 290 290 290 289 290 293 293 287 280 279 278 276 273 267 264 264 265 265 264 265 267 266 263 262 262 258 259 260 259 258 260 259
305 305 303 300 299 297 295 293 289 289 288 290 292 290 289 288 291 294 295 288 280 275 271 269 269 270 270 267 265 264 265 268 267 263 260 258 259 259 258 257 257 258 259
303 303 302 299 295 293 294 294 292 289 289 290 290 290 289 289 290 293 295 291 282 273 274 268 266 269 268 266 265 263 263 264 264 261 259 258 258 258 257 256 257 257 257
300 300 299 295 292 290 292 293 290 289 288 289 290 288 287 286 286 288 289 289 287 280 278 274 274 271 272 269 266 264 264 263 263 261 261 262 261 258 258 259 258 259 259
296 295 292 291 292 289 291 293 288 287 287 287 288 288 286 285 286 286 287 287 286 280 280 279 276 273 276 276 275 272 269 267 265 263 263 263 262 260 258 259 260 261 260
293 291 288 288 290 291 293 293 290 287 287 287 286 285 286 286 284 285 286 285 285 281 276 275 275 273 273 273 274 274 272 268 265 262 261 261 261 259 258 259 261 261 261
291 288 286 285 284 286 289 290 291 289 286 286 286 286 286 288 287 287 286 286 285 283 280 277 272 272 272 271 272 274 272 268 265 261 258 258 258 258 257 257 258 260 262
287 286 285 285 284 286 288 288 288 289 289 287 286 286 285 285 286 287 286 285 284 283 281 279 275 272 271 271 272 273 271 267 264 262 260 258 257 257 257 256 259 261 261
282 281 282 283 283 285 287 288 289 289 288 288 286 286 286 287 287 288 287 285 283 282 280 279 276 273 273 273 272 273 269 266 265 262 260 260 259 258 257 259 261 261 260
278 280 280 281 283 284 285 286 287 287 286 286 287 287 288 287 287 287 286 283 283 282 280 277 274 274 274 274 273 272 271 267 266 264 261 260 260 260 260 261 261 262 261
277 279 280 281 284 284 284 284 284 284 284 284 284 284 284 284 285 285 284 281 280 280 280 279 276 275 275 275 275 272 270 269 267 264 261 260 260 259 260 262 261 262 262
275 278 281 281 282 283 283 283 283 283 282 282 283 283 282 282 282 282 282 280 279 279 279 278 277 275 276 276 275 274 272 269 268 264 261 259 260 258 257 261 261 264 263
277 277 279 281 282 282 283 283 283 281 281 281 281 281 282 281 281 281 281 280 277 277 277 277 277 276 277 276 275 273 272 268 266 264 261 259 258 256 256 259 260 262 263
278 279 278 279 280 281 282 282 282 281 281 281 281 281 281 281 281 281 281 280 277 276 276 277 276 275 276 277 275 273 270 268 265 263 259 257 255 254 257 257 259 260 261
278 279 279 279 281 279 281 282 281 280 280 279 279 280 280 279 279 279 279 278 277 276 276 277 277 276 276 276 276 273 270 267 264 262 258 257 255 255 256 256 256 259 261
280 280 279 280 280 280 280 280 280 281 280 279 279 279 278 277 276 277 277 277 277 276 276 276 277 277 276 276 276 275 273 270 267 266 263 261 259 259 259 257 258 259 260
280 281 279 280 279 279 280 280 281 281 280 279 279 279 277 276 275 276 276 276 276 276 276 275 276 276 277 276 275 274 272 270 268 266 264 263 262 261 260 259 257 258 259
279 280 279 279 279 280 281 281 280 281 281 280 279 279 277 275 274 275 275 275 276 276 275 275 275 275 275 275 274 273 271 269 268 265 264 263 262 263 262 261 258 258 258
279 279 279 280 281 281 281 281 282 282 282 281 280 279 277 276 274 274 274 275 276 276 276 275 274 274 275 274 272 271 270 269 267 265 263 262 262 263 263 262 260 258 258
278 279 279 281 281 282 282 282 282 283 283 281 280 279 277 276 274 274 273 273 274 275 274 275 274 273 273 273 271 270 268 267 267 265 264 262 262 262 262 261 261 259 257
278 279 279 280 281 282 282 282 282 282 282 281 280 279 277 277 276 274 274 272 273 274 273 272 272 271 271 270 270 269 268 266 265 264 263 262 261 261 261 262 261 260 258
278 279 279 279 280 282 282 283 282 281 280 281 281 280 278 277 277 276 274 272 272 274 273 271 270 269 270 269 269 269 268 266 265 265 263 263 262 261 261 261 262 260 259
278 278 279 279 279 281 282 281 281 280 280 280 280 280 279 277 276 275 274 272 273 273 273 271 270 269 269 268 268 268 268 267 266 264 263 262 261 260 260 261 262 261 260
281 280 279 280 280 280 281 280 280 280 279 279 279 279 279 277 275 275 274 273 272 272 271 270 269 270 270 269 269 269 269 268 267 265 263 262 261 260 260 261 261 260 259
282 280 280 280 280 280 279 279 279 278 277 277 278 278 279 278 277 276 275 273 273 272 271 270 269 269 269 270 270 270 269 268 267 266 264 262 260 259 259 259 259 259 258
Height
5856 5855 5854 5852 5851 5850 5850 5849 5848 5847 5846 5845 5844 5843 5841 5840 5838 5837 5836 5835 5834 5832 5831 5830 5830 5830 5831 5831 5832 5832 5832 5833 5833 5833 5833 5833 5833 5834 5834 5834 5834 5834 5835
5854 5853 5852 5851 5850 5849 5848 5847 5846 5845 5844 5843 5842 5841 5840 5838 5837 5836 5834 5833 5832 5831 5831 5830 5830 5830 5830 5830 5830 5830 5830 5830 5831 5831 5831 5831 5831 5831 5831 5831 5832 5832 5832
5852 5851 5850 5849 5848 5847 5846 5845 5844 5843 5842 5841 5840 5839 5838 5836 5835 5834 5833 5832 5831 5830 5830 5829 5829 5828 5828 5828 5828 5828 5828 5828 5828 5828 5828 5828 5829 5829 5829 5829 5829 5829 5829
5851 5849 5848 5847 5846 5845 5844 5843 5842 5841 5840 5839 5838 5837 5836 5834 5833 5832 5831 5830 5829 5828 5828 5827 5827 5826 5826 5826 5826 5825 5825 5825 5825 5825 5826 5826 5826 5826 5826 5827 5827 5827 5827
5849 5848 5846 5845 5844 5843 5842 5841 5840 5839 5838 5837 5836 5835 5834 5832 5831 5830 5829 5828 5827 5826 5826 5825 5825 5824 5823 5823 5823 5823 5822 5822 5822 5822 5823 5823 5823 5823 5824 5824 5824 5824 5824
5846 5845 5844 5843 5842 5841 5840 5838 5837 5836 5835 5834 5833 5832 5831 5830 5829 5828 5827 5826 5825 5824 5823 5822 5822 5821 5820 5820 5819 5819 5819 5819 5819 5819 5819 5820 5820 5820 5821 5821 5821 5821 5821
5843 5842 5841 5840 5839 5838 5837 5836 5835 5834 5833 5832 5831 5830 5828 5827 5826 5825 5824 5823 5822 5821 5819 5819 5818 5818 5817 5817 5816 5816 5816 5816 5815 5816 5816 5816 5816 5817 5817 5817 5818 5818 5818
5840 5839 5838 5837 5836 5835 5834 5833 5832 5831 5830 5828 5828 5827 5826 5825 5823 5822 5821 5820 5819 5818 5816 5815 5815 5814 5814 5814 5813 5813 5812 5812 5812 5812 5812 5812 5813 5813 5813 5813 5814 5814 5814
5837 5836 5835 5834 5833 5832 5831 5830 5829 5827 5826 5825 5824 5823 5822 5822 5820 5819 5817 5816 5815 5814 5813 5812 5811 5811 5810 5810 5809 5809 5808 5808 5808 5808 5808 5808 5809 5809 5809 5809 5810 5810 5810
5834 5833 5832 5831 5830 5829 5828 5826 5825 5824 5823 5822 5820 5820 5819 5817 5817 5815 5814 5812 5811 5810 5809 5808 5807 5807 5806 5806 5805 5805 5804 5804 5804 5804 5804 5804 5804 5805 5805 5805 5806 5806 5806
5830 5829 5828 5827 5826 5825 5823 5822 5821 5820 5819 5818 5817 5816 5815 5813 5812 5811 5810 5809 5807 5806 5805 5804 5803 5802 5802 5801 5800 5800 5799 5799 5799 5799 5799 5799 5800 5800 5801 5801 5801 5801 5801
5825 5824 5823 5822 5821 5820 5819 5818 5817 5816 5814 5813 5812 5811 5810 5809 5808 5807 5805 5804 5803 5801 5800 5799 5798 5797 5797 5796 5795 5795 5794 5794 5794 5794 5794 5795 5795 5795 5796 5796 5797 5796 5797
5820 5819 5818 5817 5816 5815 5814 5813 5812 5811 5809 5808 5807 5806 5804 5803 5802 5801 5800 5799 5798 5797 5795 5794 5793 5792 5791 5791 5790 5789 5789 5789 5788 5788 5789 5789 5790 5790 5791 5791 5792 5791 5792
5815 5814 5813 5812 5811 5810 5808 5807 5806 5805 5804 5802 5801 5800 5799 5797 5796 5795 5794 5793 5792 5791 5790 5789 5788 5787 5786 5785 5784 5783 5783 5782 5782 5782 5783 5783 5784 5785 5786 5786 5787 5787 5787
5809 5808 5807 5806 5805 5803 5802 5801 5800 5799 5797 5796 5795 5793 5792 5791 5790 5789 5788 5787 5786 5785 5785 5783 5782 5781 5780 5779 5778 5777 5776 5776 5776 5776 5776 5777 5778 5779 5780 5781 5781 5782 5782
5802 5801 5800 5799 5798 5797 5796 5794 5793 5792 5790 5789 5788 5786 5785 5784 5783 5782 5781 5780 5779 5778 5778 5777 5775 5774 5773 5772 5771 5770 5770 5769 5769 5769 5770 5771 5771 5772 5773 5774 5775 5776 5777
5795 5794 5793 5792 5791 5789 5788 5787 5786 5784 5783 5781 5780 5778 5777 5776 5775 5774 5773 5772 5771 5771 5770 5769 5768 5767 5766 5765 5764 5763 5762 5762 5762 5762 5763 5764 5764 5765 5766 5767 5768 5769 5770
5787 5786 5785 5784 5783 5782 5780 5779 5777 5776 5774 5773 5771 5770 5769 5767 5766 5766 5765 5764 5763 5762 5762 5761 5760 5759 5758 5757 5756 5755 5755 5754 5754 5755 5755 5756 5757 5758 5759 5760 5761 5762 5763
5779 5778 5777 5776 5774 5773 5772 5770 5769 5767 5765 5764 5762 5761 5760 5758 5758 5757 5756 5755 5754 5753 5753 5752 5751 5750 5749 5748 5748 5747 5747 5746 5746 5747 5747 5748 5749 5750 5751 5752 5753 5755 5756
5770 5769 5768 5767 5766 5764 5763 5761 5759 5758 5756 5754 5753 5751 5750 5749 5748 5747 5746 5745 5745 5744 5743 5743 5742 5741 5741 5740 5739 5739 5739 5738 5738 5739 5739 5740 5741 5742 5743 5744 5745 5747 5748
5761 5760 5759 5758 5756 5755 5754 5752 5750 5748 5746 5744 5743 5741 5740 5739 5738 5737 5736 5736 5735 5734 5734 5733 5733 5732 5732 5731 5730 5730 5730 5730 5730 5730 5730 5731 5732 5733 5734 5735 5736 5737 5739
5752 5750 5749 5748 5747 5745 5744 5742 5740 5738 5736 5734 5733 5731 5730 5729 5728 5727 5726 5726 5725 5724 5724 5724 5723 5723 5722 5722 5721 5721 5721 5721 5721 5722 5721 5722 5723 5724 5725 5726 5727 5728 5730
5742 5741 5739 5738 5736 5735 5733 5731 5729 5728 5726 5724 5723 5721 5720 5719 5718 5717 5716 5715 5715 5714 5714 5714 5713 5713 5713 5713 5712 5712 5712 5712 5712 5712 5712 5713 5714 5715 5716 5717 5718 5719 5720
5731 5730 5729 5727 5726 5724 5722 5721 5719 5717 5715 5713 5712 5711 5709 5708 5707 5706 5706 5705 5704 5704 5704 5703 5703 5703 5703 5702 5702 5702 5701 5702 5702 5702 5703 5704 5705 5705 5706 5707 5709 5710 5711
5721 5719 5717 5716 5714 5713 5711 5709 5707 5706 5704 5703 5702 5700 5699 5698 5697 5696 5695 5694 5694 5693 5693 5692 5692 5692 5692 5691 5691 5691 5691 5691 5692 5692 5692 5693 5694 5695 5696 5698 5699 5700 5701
5710 5708 5706 5705 5703 5702 5700 5698 5696 5695 5693 5692 5691 5690 5688 5687 5686 5684 5684 5683 5682 5682 5681 5681 5681 5681 5680 5680 5680 5680 5680 5680 5680 5681 5682 5682 5683 5684 5686 5688 5689 5690 5691